This is the latest recevied weather packets stored in our database for station/object N2ZVN. If no packets are shown the sender has not sent any weather packets the latest 10 day(s).
| Time | Temp. | Humidity | Pressure | Rain* | Wind** | Luminosity | Snow |
|---|---|---|---|---|---|---|---|
| 1788720184 | 20° C | 71% | 1020.7 hPa | 0 mm | - | 77 W/m² | - |
| 1788719879 | 20° C | 70% | 1020.7 hPa | 0 mm | - | 53 W/m² | - |
| 1788719575 | 20° C | 73% | 1020.7 hPa | 0 mm | - | 117 W/m² | - |
| 1788719275 | 20° C | 71% | 1020.9 hPa | 0 mm | - | 39 W/m² | - |
| 1788718971 | 20.56° C | 71% | 1020.8 hPa | 0 mm | - | 99 W/m² | - |
| 1788718666 | 20° C | 72% | 1020.8 hPa | 0 mm | - | 88 W/m² | - |
| 1788718362 | 20° C | 74% | 1020.9 hPa | 0 mm | - | 71 W/m² | - |
| 1788718057 | 20° C | 73% | 1020.8 hPa | 0 mm | - | 568 W/m² | - |
| 1788717752 | 20° C | 74% | 1020.8 hPa | 0 mm | - | 76 W/m² | - |
| 1788717450 | 20° C | 73% | 1020.7 hPa | 0 mm | - | 61 W/m² | - |
| 1788717146 | 20° C | 75% | 1020.7 hPa | 0 mm | - | 94 W/m² | - |
| 1788716844 | 20° C | 74% | 1020.6 hPa | 0 mm | - | 81 W/m² | - |
| 1788716544 | 20° C | 74% | 1020.8 hPa | 0 mm | - | 54 W/m² | - |
| 1788716239 | 20° C | 75% | 1020.6 hPa | 0 mm | - | 82 W/m² | - |
| 1788715935 | 20° C | 76% | 1020.7 hPa | 0 mm | - | 98 W/m² | - |
| 1788715634 | 20° C | 74% | 1020.9 hPa | 0 mm | - | 83 W/m² | - |
| 1788715330 | 20.56° C | 74% | 1020.8 hPa | 0 mm | - | 91 W/m² | - |
| 1788715030 | 20° C | 73% | 1020.8 hPa | 0 mm | - | 128 W/m² | - |
| 1788714725 | 20° C | 73% | 1021 hPa | 0 mm | - | 169 W/m² | - |
| 1788714421 | 20° C | 76% | 1020.9 hPa | 0 mm | - | 783 W/m² | - |
| 1788714121 | 20° C | 75% | 1020.7 hPa | 0 mm | - | 157 W/m² | - |
| 1788713817 | 20° C | 76% | 1020.7 hPa | 0 mm | - | 74 W/m² | - |
| 1788713518 | 20.56° C | 74% | 1020.8 hPa | 0 mm | - | 98 W/m² | - |
| 1788713217 | 21.11° C | 73% | 1020.8 hPa | 0 mm | - | 484 W/m² | - |
| 1788712912 | 20.56° C | 73% | 1020.7 hPa | 0 mm | - | 785 W/m² | - |
* Rain latest hour (hover to see other rain measurements)
** Current wind speed in m/s (hover to see current wind gust speed)